Home   Weather   Cornwall   Past weeks

Flag for Canada Past Weather in Cornwall, Ontario, Canada — Yesterday and Last 2 Weeks

Now
35 °F

Chilly.


Feels Like: 26 °F
Forecast: 28 / 34 °F
Wind: 12 mph from Southwest

Location: St Anicet

Current Time: Dec 7, 2016 at 9:23:29 pm

Latest Report: Dec 7, 2016 at 8:00 pm


Visibility: N/A

Pressure: 29.93 "Hg

Humidity: 77%

Dew Point: 28 °F

Location of CornwallLocation

Past Weather in Cornwall — Graph

°F

Cornwall Temperature Yesterday

Maximum temperature yesterday: 35 °F (at 12:00 pm)
Minimum temperature yesterday: 24 °F (at 5:00 am)
Average temperature yesterday: 30 °F

High & Low Weather Summary for the Past Weeks

 TemperatureHumidityPressure
High50 °F (Dec 1, 5:00 am)100% (Nov 24, 11:00 am)30.36 "Hg (Nov 24, 11:00 am)
Low22 °F (Dec 4, 11:00 pm)60% (Dec 3, 7:00 pm)29.35 "Hg (Dec 1, 5:00 am)
Average33 °F89%30.01 "Hg
* Reported Nov 22 8:00 pm — Dec 7 8:00 pm, Cornwall, Weather by CustomWeather, © 2016

Note: Actual official high and low records may vary slightly from our data, if they occured in-between our weather recording intervals... More about our weather records

Advertising

Cornwall Weather History for the Previous 24 Hours

Scroll right to see more
 ConditionsComfort  
Time TempWeatherWind HumidityBarometerVisibility
8:00 pm
Wed, Dec 7
35 °FChilly.12 mph77%29.93 "HgN/A
7:00 pm37 °FChilly.10 mph70%29.93 "HgN/A
6:00 pm38 °FChilly.12 mph70%29.92 "HgN/A
5:00 pm38 °FChilly.6 mph74%29.93 "HgN/A
4:00 pm38 °FChilly.8 mph76%29.90 "HgN/A
3:00 pm39 °FChilly.10 mph75%29.88 "HgN/A
2:00 pm40 °FChilly.10 mph79%29.86 "HgN/A
1:00 pm39 °FChilly.13 mph86%29.85 "HgN/A
12:00 pm36 °FChilly.6 mph100%29.85 "HgN/A
11:00 am31 °FChilly.1 mph100%29.85 "HgN/A
10:00 am31 °FChilly.1 mph99%29.85 "HgN/A
9:00 am30 °FChilly.3 mph99%29.85 "HgN/A
8:00 am29 °FChilly.5 mph100%29.85 "HgN/A
7:00 am29 °FChilly.6 mph99%29.86 "HgN/A
6:00 am28 °FChilly.6 mph100%29.86 "HgN/A
5:00 am28 °FChilly.7 mph92%29.87 "HgN/A
4:00 am28 °FChilly.8 mph89%29.88 "HgN/A
3:00 am28 °FChilly.7 mph90%29.90 "HgN/A
2:00 am28 °FChilly.7 mph88%29.91 "HgN/A
1:00 am28 °FChilly.7 mph86%29.91 "HgN/A
12:00 am29 °FChilly.7 mph85%29.93 "HgN/A
11:00 pm
Tue, Dec 6
29 °FChilly.8 mph84%29.96 "HgN/A
10:00 pm29 °FChilly.6 mph86%29.98 "HgN/A
9:00 pm29 °FChilly.7 mph85%30.01 "HgN/A
Weather by CustomWeather, © 2016

See weather overviewHow to use our weather pages